Regional Weather Roundup
Issued by NWS

Home | Current Version | Previous Version | Text Only | Print | Product List | Glossary Off
Versions: 1 2 3 4 5 6 7 8 9 10 11 12 13 14 15 16 17 18 19 20 21 22 23 24 25 26 27 28 29 30 31 32 33 34 35 36 37 38 39 40 41 42 43 44 45 46 47 48 49 50

000
ASUS43 KDMX 030107
RWRIA

WEATHER ROUNDUP FOR IOWA
NATIONAL WEATHER SERVICE DES MOINES IA
800 PM CDT SAT MAY 02 2015

NOTE: "FAIR" INDICATES FEW OR NO CLOUDS BELOW 12,000 FEET WITH NO
SIGNIFICANT WEATHER AND/OR OBSTRUCTIONS TO VISIBILITY.

* - THESE STATIONS ARE NOT NWS STATIONS...THUS NOT UNDER NWS
QUALITY CONTROL.  THEY ALSO DO NOT REPORT WEATHER SUCH
AS PRECIPITATION OR FOG.

IAZ001>003-012>014-020>022-031>034-043>046-030200-
   NORTHWEST IOWA

CITY           SKY/WX    TMP DP  RH WIND       PRES   REMARKS
CARROLL *      CLEAR     64  52  63 S14       29.83S
CHEROKEE *     CLEAR     70  55  60 S10       29.78F
DENISON *      CLEAR     66  55  68 S10       29.78F
LE MARS *      CLEAR     72  55  56 MISG      29.76F
ORANGE CITY *  CLEAR     72  54  53 S8        29.77S
SHELDON *      CLEAR     72  55  56 S12       29.76F
SIOUX CITY     CLEAR     73  55  53 SE17      29.74F
SPENCER        CLEAR     71  55  56 S14       29.79S
STORM LAKE *   CLEAR     68  54  60 S15       29.81S
$$

IAZ055>058-069>071-079>083-090>094-030200-
   SOUTHWEST IOWA

CITY           SKY/WX    TMP DP  RH WIND       PRES   REMARKS
ATLANTIC *     PTCLDY    66  55  68 S13       29.83S
AUDUBON *      CLEAR     63  55  77 S8        29.84F
CLARINDA *     CLEAR     66  57  72 SE9       29.85F
COUNCIL BLFS * CLEAR     66  61  82 SE16      29.79F
CRESTON *      CLEAR     61  54  77 S12       29.87F
HARLAN  *      CLEAR     68  57  68 S16G23    29.83F
LAMONI         CLEAR     62  54  74 SE10      29.89S
RED OAK *      CLEAR     66  57  72 SE10G17   29.82F
SHENANDOAH *   CLEAR     68  59  73 SE14      29.81F
$$

IAZ047>049-059>061-072>074-084-030200-
   CENTRAL IOWA

CITY           SKY/WX    TMP DP  RH WIND       PRES   REMARKS
AMES           CLEAR     63  53  70 S20G25    29.86F
ANKENY *       CLEAR     63  55  77 S10G17    29.88S
CHARITON *     CLEAR     61  55  82 SE12      29.90S
DES MOINES     PTCLDY    63  54  72 S13       29.88F
GRINNELL*      DRIZZLE   61  54  77 S8        29.91F
KNOXVILLE *    MOCLDY    61  55  82 SE10      29.89S
MARSHALLTOWN   CLOUDY    64  53  67 S16       29.88S
PELLA *        PTCLDY    59  59 100 SE8       29.92F
PERRY *          N/A     63  54  72 S13       29.86S
$$

IAZ004>006-015-016-023>025-035-036-030200-
   NORTH CENTRAL IOWA

CITY           SKY/WX    TMP DP  RH WIND       PRES   REMARKS
ALGONA *       CLEAR     68  54  60 S18       29.83R
CLARION *      CLEAR     66  50  55 S21       29.85R
ESTHERVILLE    CLEAR     69  53  56 S21       29.78F
FORT DODGE *   CLEAR     66  48  52 S15G21    29.86R
MASON CITY     CLEAR     68  51  54 S20G28    29.85S
FOREST CITY *  CLEAR     68  50  52 S16G26    29.83R
IOWA FALLS *   CLOUDY    66  52  59 S18       29.88S
$$

IAZ007>011-017>019-026>030-037>042-050>054-066-030200-
   NORTHEAST IOWA

CITY           SKY/WX    TMP DP  RH WIND       PRES   REMARKS
CEDAR RAPIDS   PTCLDY    64  52  64 S10       29.92F
CHARLES CITY * CLEAR     68  50  52 S12       29.87S
CLINTON *        N/A     66  48  52 SW9       29.97S
DECORAH *      CLEAR     68  50  52 S8G14     29.87R
DUBUQUE        PTCLDY    65  48  54 SW9       29.92S
MONTICELLO *   CLOUDY    68  50  52 S14       29.92S
OELWEIN *      CLEAR     66  50  55 S13       29.90S
WATERLOO       CLEAR     66  51  58 S13       29.88S
$$

IAZ064-065-067-068-078-030200-
   EAST CENTRAL IOWA

CITY           SKY/WX    TMP DP  RH WIND       PRES   REMARKS
DAVENPORT      CLOUDY    68  48  48 SW8       29.95F
IOWA CITY      MOCLDY    64  53  67 S7        29.94F
MT. PLEASANT * DRIZZLE   61  52  72 E5        29.94F
MUSCATINE *    MOCLDY    66  52  59 S8        29.94F
QUAD CITIES    CLOUDY    68  47  46 S3        29.94F
$$

IAZ062-063-075>077-085>089-095>099-030200-
   SOUTHEAST IOWA

CITY           SKY/WX    TMP DP  RH WIND       PRES   REMARKS
BURLINGTON     CLOUDY    62  49  62 S13       29.94F
FAIRFIELD *    LGT RAIN  59  55  88 VRB5G16   29.93S
FORT MADISON * PTCLDY    61  52  72 S8        29.95F
KEOKUK *       CLOUDY    59  54  82 SE6       29.95F
OSKALOOSA *    CLOUDY    59  55  88 CALM      29.93R
CENTERVILLE *  CLEAR     59  55  88 SE10      29.94S
OTTUMWA        CLOUDY    59  56  89 S12       29.92F
WASHINGTON *   MOCLDY    63  57  82 S8        29.93S
$$

ABBREVIATIONS USED IN REMARKS
   TC - TEMPERATURES IN CELSIUS
  WCI - WIND CHILL INDEX
   HX - HEAT INDEX
  VSB - VISIBILITY
$$



USA.gov is the U.S. government's official web portal to all federal, state and local government web resources and services.